Regional Weather Roundup
Issued by NWS Jackson, KY

Home | Current Version | Previous Version | Graphics & Text | Print | Product List | Glossary On
Versions: 1 2 3 4 5 6 7 8 9 10 11 12 13 14 15 16 17 18 19 20 21 22 23 24 25 26 27 28 29 30 31 32 33 34 35 36 37 38 39 40 41 42 43 44 45 46 47 48 49 50
000
ASUS43 KJKL 220310
RWRJKL

EAST KENTUCKY HOURLY WEATHER ROUNDUP
NATIONAL WEATHER SERVICE JACKSON KY
1100 PM EDT TUE OCT 21 2014

NOTE: "FAIR" INDICATES FEW OR NO CLOUDS BELOW 12,000 FEET WITH
NO SIGNIFICANT WEATHER AND/OR OBSTRUCTIONS TO VISIBILITY.

* THESE REPORTS ARE NOT UNDER NWS QUALITY CONTROL AND MAY NOT
  REPORT WEATHER SUCH AS PRECIPITATION AND FOG.

KYZ079-080-083-085-087-088-110-112-115-119-120-220400
...EASTERN KENTUCKY...

CITY           SKY/WX    TMP DP  RH WIND       PRES   REMARKS
JACKSON        CLOUDY    48  40  73 CALM      30.12R
LONDON         CLOUDY    51  40  65 N3        30.13R
SOMERSET*      CLOUDY    50  41  71 CALM      30.15R
MONTICELLO*    CLOUDY    51  43  74 CALM      30.15R
WILLIAMSBURG*  CLOUDY    50  41  71 CALM      30.13
MIDDLESBORO*   CLOUDY    46  42  86 CALM      30.12S
HARLAN APT*    CLOUDY    46  37  71 N3        30.12R
HAZARD APT*    CLOUDY    48  41  76 CALM      30.12R
BLACK MTN*       N/A     37  37 100 N9          N/A  WCI  31
PIKEVILLE APT* CLOUDY    46  41  81 NW6       30.11R
BIG SANDY*     CLOUDY    48  42  80 N14G22    30.12R
MOREHEAD APT*  CLOUDY    48  45  87 VRB5G12   30.17R
$$

KYZ035-036-041-042-044-050-067-078-099-220400
...CENTRAL KENTUCKY...

CITY           SKY/WX    TMP DP  RH WIND       PRES   REMARKS
MT STERLING*   CLOUDY    48  43  81 NE12      30.16S
FLEMING/MASON* MOCLDY    45  41  87 N5        30.17S
DANVILLE*      CLOUDY    50  41  71 NE5       30.15S
RICHMOND*      CLOUDY    50  41  71 N3        30.14R
LEXINGTON      CLOUDY    52  42  69 NE8       30.15R
FRANKFORT      CLOUDY    52  41  66 N5        30.15R
$$

KYZ091>093-OHZ055-061-077-WVZ005-015-034-035-042-220400
...SOUTHERN OHIO/WEST VIRGINIA...

CITY           SKY/WX    TMP DP  RH WIND       PRES   REMARKS
COVINGTON      PTCLDY    47  40  76 N7        30.17R
COLUMBUS       CLOUDY    45  39  79 NW14      30.15R
DAYTON         CLOUDY    47  37  68 N9        30.19S
WILMINGTON     CLOUDY    46  36  68 N13       30.16R
HUNTINGTON     PTCLDY    45  42  89 NW3       30.13R
CHARLESTON     CLOUDY    48  44  86 N7        30.09S
PINEVILLE*     RAIN      47  47  98 MISG      30.12S
BECKLEY        LGT RAIN  43  40  89 N12       30.05R
BLUEFIELD      CLOUDY    44  39  82 NW10G20   30.05R
$$

VAZ002-007-008-TNZ017-027-036-066-071-220400
...SOUTHWEST VIRGINIA/EAST TENNESSEE...

CITY           SKY/WX    TMP DP  RH WIND       PRES   REMARKS
WISE*          CLOUDY    45  37  76 NW5       30.09S
JONESVILLE*    PTCLDY    46  39  76 CALM      30.13R
ABINGDON*      CLOUDY    49  39  70 NW5       30.09S
BRISTOL        MOCLDY    48  39  71 E5        30.10R
KNOXVILLE      PTCLDY    52  40  63 N8        30.10R
OAK RIDGE      CLEAR     50  42  74 CALM      30.13R
CROSSVILLE     PTCLDY    49  40  71 N6        30.12R
NASHVILLE      CLEAR     54  43  66 N8        30.13R
$$

...KEY TO REMARKS...
VSB - VISIBILITY IN MILES
WCI - WIND CHILL INDEX
HX  - HEAT INDEX

$$



USA.gov is the U.S. government's official web portal to all federal, state and local government web resources and services.